Private Wetterstation Wechselburg
Wetterdaten: Mittwoch, 25.03.2020
Datum Zeit Temp. +2m Bodentemp. Temp.+5cm Temp. Wind Windchill X Diff Temp. Feuchte +2m Feuchte +5cm Luftdruck Regen Wind Richtung Richtung Sonnenschein Taupunkt Windchill Windben
25.03.2020 00:00 -1,6 C 5,3 C -2,4 C -2,2 C -3,3 C 0,0 C 61 % 65 % 1035,6 hPa 0,0 l/m 2,6 km/h (1 Bft) NO 45 0 min -8,1 C -3,3 C 4,7 km/h (1 Bft)
25.03.2020 00:05 -1,5 C 5,3 C -2,2 C -2,2 C -3,7 C 0,0 C 61 % 65 % 1035,6 hPa 0,0 l/m 3,4 km/h (1 Bft) NO 45 0 min -8,0 C -3,7 C 3,9 km/h (1 Bft)
25.03.2020 00:11 -1,3 C 5,3 C -2,0 C -2,1 C -3,6 C 0,0 C 60 % 64 % 1035,6 hPa 0,0 l/m 3,4 km/h (1 Bft) N 0 0 min -8,0 C -3,6 C 3,9 km/h (1 Bft)
25.03.2020 00:26 -1,9 C 5,2 C -2,9 C -2,6 C -3,9 C 0,0 C 60 % 67 % 1035,2 hPa 0,0 l/m 0,0 km/h (0 Bft) S 180 0 min -8,6 C -3,9 C 4,2 km/h (1 Bft)
25.03.2020 00:36 -2,3 C 5,2 C -3,3 C -3,2 C -4,9 C 0,0 C 61 % 68 % 1035,2 hPa 0,0 l/m 0,0 km/h (0 Bft) S 180 0 min -8,8 C -4,9 C 0,0 km/h (0 Bft)
25.03.2020 00:40 -2,5 C 5,2 C -3,4 C -3,3 C -5,0 C 0,0 C 61 % 69 % 1035,2 hPa 0,0 l/m 0,0 km/h (0 Bft) S 180 0 min -9,0 C -5,0 C 0,0 km/h (0 Bft)
25.03.2020 00:45 -2,7 C 5,2 C -3,7 C -3,5 C -5,1 C 0,0 C 61 % 69 % 1035,2 hPa 0,0 l/m 0,0 km/h (0 Bft) N-NW 337 0 min -9,2 C -5,1 C 0,0 km/h (0 Bft)
25.03.2020 00:50 -2,9 C 5,2 C -3,8 C -3,7 C -5,2 C 0,0 C 62 % 70 % 1035,2 hPa 0,0 l/m 0,0 km/h (0 Bft) N-NW 337 0 min -9,1 C -5,2 C 0,0 km/h (0 Bft)
25.03.2020 00:55 -2,9 C 5,2 C -4,0 C -3,7 C -5,4 C 0,0 C 62 % 71 % 1035,2 hPa 0,0 l/m 0,0 km/h (0 Bft) N-NO 22 0 min -9,1 C -5,4 C 0,0 km/h (0 Bft)
25.03.2020 01:00 -3,1 C 5,2 C -4,1 C -4,0 C -5,7 C 0,0 C 62 % 72 % 1035,2 hPa 0,0 l/m 0,0 km/h (0 Bft) NW 315 0 min -9,3 C -5,7 C 0,0 km/h (0 Bft)
25.03.2020 01:05 -3,3 C 5,2 C -4,1 C -4,1 C -5,7 C 0,0 C 63 % 71 % 1035,2 hPa 0,0 l/m 0,0 km/h (0 Bft) W 270 0 min -9,3 C -5,7 C 0,0 km/h (0 Bft)
25.03.2020 01:10 -3,3 C 5,2 C -4,1 C -4,2 C -5,9 C 0,0 C 63 % 72 % 1035,2 hPa 0,0 l/m 0,0 km/h (0 Bft) O-NO 67 0 min -9,3 C -5,9 C 0,0 km/h (0 Bft)
25.03.2020 01:15 -3,5 C 5,1 C -4,3 C -4,3 C -5,9 C 0,0 C 64 % 73 % 1035,2 hPa 0,0 l/m 0,0 km/h (0 Bft) O-NO 67 0 min -9,3 C -5,9 C 0,0 km/h (0 Bft)
25.03.2020 01:20 -3,6 C 5,1 C -4,5 C -4,4 C -5,9 C 0,0 C 64 % 73 % 1034,3 hPa 0,0 l/m 0,0 km/h (0 Bft) N-NW 337 0 min -9,4 C -5,9 C 0,0 km/h (0 Bft)
25.03.2020 01:25 -3,7 C 5,1 C -4,5 C -4,4 C -5,8 C 0,0 C 65 % 73 % 1034,3 hPa 0,0 l/m 0,0 km/h (0 Bft) N-NW 337 0 min -9,3 C -5,8 C 0,0 km/h (0 Bft)
25.03.2020 01:30 -3,7 C 5,1 C -4,6 C -4,4 C -5,8 C 0,0 C 65 % 74 % 1034,3 hPa 0,0 l/m 0,0 km/h (0 Bft) N-NW 337 0 min -9,3 C -5,8 C 0,0 km/h (0 Bft)
25.03.2020 01:35 -3,9 C 5,1 C -4,7 C -4,5 C -5,8 C 0,0 C 65 % 74 % 1034,3 hPa 0,0 l/m 0,0 km/h (0 Bft) N-NW 337 0 min -9,5 C -5,8 C 0,0 km/h (0 Bft)
25.03.2020 01:40 -4,0 C 5,1 C -4,7 C -4,6 C -5,7 C 0,0 C 66 % 75 % 1034,2 hPa 0,0 l/m 0,0 km/h (0 Bft) O-NO 67 0 min -9,4 C -5,7 C 0,0 km/h (0 Bft)
25.03.2020 01:45 -3,9 C 5,1 C -4,7 C -4,4 C -5,4 C 0,0 C 66 % 75 % 1034,2 hPa 0,0 l/m 0,0 km/h (0 Bft) NO 45 0 min -9,3 C -5,4 C 0,0 km/h (0 Bft)
25.03.2020 01:50 -3,7 C 5,1 C -4,8 C -4,3 C -5,5 C 0,0 C 67 % 75 % 1034,2 hPa 0,0 l/m 0,0 km/h (0 Bft) NO 45 0 min -8,9 C -5,5 C 0,0 km/h (0 Bft)
25.03.2020 01:55 -3,9 C 5,0 C -4,9 C -4,5 C -5,7 C 0,0 C 67 % 75 % 1034,2 hPa 0,0 l/m 0,0 km/h (0 Bft) NO 45 0 min -9,1 C -5,7 C 0,0 km/h (0 Bft)
25.03.2020 02:00 -3,9 C 5,0 C -4,9 C -4,4 C -5,5 C 0,0 C 68 % 76 % 1034,2 hPa 0,0 l/m 0,5 km/h (0 Bft) O-NO 67 0 min -8,9 C -5,5 C 2,1 km/h (1 Bft)
25.03.2020 02:05 -4,0 C 5,0 C -4,9 C -4,4 C -5,3 C 0,0 C 68 % 77 % 1034,2 hPa 0,0 l/m 1,1 km/h (1 Bft) O-NO 67 0 min -9,0 C -5,3 C 1,8 km/h (1 Bft)
25.03.2020 02:11 -3,9 C 5,0 C -4,9 C -4,4 C -5,3 C 0,0 C 68 % 76 % 1034,2 hPa 0,0 l/m 1,0 km/h (0 Bft) N 0 0 min -8,9 C -5,3 C 1,6 km/h (1 Bft)
25.03.2020 02:25 -4,3 C 5,0 C -5,1 C -5,0 C -6,3 C 0,0 C 69 % 77 % 1034,1 hPa 0,0 l/m 0,0 km/h (0 Bft) NW 315 0 min -9,1 C -6,3 C 0,0 km/h (0 Bft)
25.03.2020 02:40 -4,7 C 4,9 C -5,3 C -5,5 C -7,0 C 0,0 C 69 % 78 % 1034,1 hPa 0,0 l/m 0,0 km/h (0 Bft) SW 225 0 min -9,5 C -7,0 C 0,0 km/h (0 Bft)
25.03.2020 02:45 -4,9 C 4,9 C -5,4 C -5,7 C -7,2 C 0,0 C 70 % 78 % 1034,1 hPa 0,0 l/m 0,0 km/h (0 Bft) SW 225 0 min -9,5 C -7,2 C 0,0 km/h (0 Bft)
25.03.2020 02:50 -4,9 C 4,9 C -5,5 C -5,7 C -7,3 C 0,0 C 70 % 78 % 1034,1 hPa 0,0 l/m 0,0 km/h (0 Bft) SW 225 0 min -9,5 C -7,3 C 0,0 km/h (0 Bft)
25.03.2020 02:55 -4,9 C 4,9 C -5,5 C -5,7 C -7,4 C 0,0 C 71 % 78 % 1034,1 hPa 0,0 l/m 0,0 km/h (0 Bft) SW 225 0 min -9,3 C -7,4 C 0,0 km/h (0 Bft)
25.03.2020 03:00 -5,1 C 4,9 C -5,6 C -5,9 C -7,6 C 0,0 C 71 % 78 % 1033,9 hPa 0,0 l/m 0,0 km/h (0 Bft) SW 225 0 min -9,5 C -7,6 C 0,0 km/h (0 Bft)
25.03.2020 03:05 -5,2 C 4,9 C -5,7 C -6,0 C -7,6 C 0,0 C 71 % 79 % 1033,9 hPa 0,0 l/m 0,0 km/h (0 Bft) SW 225 0 min -9,6 C -7,6 C 0,0 km/h (0 Bft)
25.03.2020 03:10 -5,2 C 4,9 C -5,6 C -5,9 C -7,3 C 0,0 C 72 % 80 % 1033,9 hPa 0,0 l/m 0,0 km/h (0 Bft) O-NO 67 0 min -9,4 C -7,3 C 0,0 km/h (0 Bft)
25.03.2020 03:15 -5,1 C 4,9 C -5,5 C -5,7 C -6,8 C 0,0 C 73 % 80 % 1033,9 hPa 0,0 l/m 0,2 km/h (0 Bft) O-NO 67 0 min -9,2 C -6,8 C 0,0 km/h (0 Bft)
25.03.2020 03:20 -5,1 C 4,8 C -5,6 C -5,6 C -6,7 C 0,0 C 73 % 79 % 1034,1 hPa 0,0 l/m 0,2 km/h (0 Bft) O-NO 67 0 min -9,2 C -6,7 C 0,0 km/h (0 Bft)
25.03.2020 03:25 -4,9 C 4,8 C -5,7 C -5,5 C -6,6 C 0,0 C 73 % 79 % 1034,1 hPa 0,0 l/m 0,0 km/h (0 Bft) O 90 0 min -9,0 C -6,6 C 0,0 km/h (0 Bft)
25.03.2020 03:30 -5,1 C 4,8 C -5,7 C -5,7 C -6,8 C 0,0 C 73 % 80 % 1034,1 hPa 0,0 l/m 0,0 km/h (0 Bft) N-NO 22 0 min -9,2 C -6,8 C 0,0 km/h (0 Bft)
25.03.2020 03:35 -5,2 C 4,8 C -5,7 C -5,8 C -6,9 C 0,0 C 74 % 80 % 1034,1 hPa 0,0 l/m 0,0 km/h (0 Bft) O-NO 67 0 min -9,1 C -6,9 C 0,0 km/h (0 Bft)
25.03.2020 03:40 -5,2 C 4,8 C -5,7 C -5,8 C -6,9 C 0,0 C 74 % 80 % 1033,9 hPa 0,0 l/m 0,0 km/h (0 Bft) NO 45 0 min -9,1 C -6,9 C 0,0 km/h (0 Bft)
25.03.2020 03:45 -5,1 C 4,8 C -5,8 C -5,7 C -6,9 C 0,0 C 74 % 80 % 1033,9 hPa 0,0 l/m 0,2 km/h (0 Bft) O-NO 67 0 min -9,0 C -6,9 C 1,8 km/h (1 Bft)
25.03.2020 03:50 -5,3 C 4,8 C -5,8 C -5,8 C -6,9 C 0,0 C 74 % 80 % 1033,9 hPa 0,0 l/m 0,3 km/h (0 Bft) O-NO 67 0 min -9,2 C -6,9 C 0,0 km/h (0 Bft)
25.03.2020 03:55 -5,3 C 4,7 C -5,9 C -5,8 C -6,8 C 0,0 C 74 % 80 % 1033,9 hPa 0,0 l/m 0,5 km/h (0 Bft) NO 45 0 min -9,2 C -6,8 C 0,0 km/h (0 Bft)
25.03.2020 04:00 -5,3 C 4,7 C -5,9 C -5,9 C -7,1 C 0,0 C 74 % 80 % 1033,9 hPa 0,0 l/m 0,3 km/h (0 Bft) NO 45 0 min -9,2 C -7,1 C 0,0 km/h (0 Bft)
25.03.2020 04:05 -5,5 C 4,7 C -6,0 C -6,2 C -7,6 C 0,0 C 74 % 80 % 1033,9 hPa 0,0 l/m 0,0 km/h (0 Bft) NO 45 0 min -9,4 C -7,6 C 0,0 km/h (0 Bft)
25.03.2020 04:11 -5,6 C 4,7 C -6,0 C -6,3 C -7,8 C 0,0 C 74 % 80 % 1033,9 hPa 0,0 l/m 0,0 km/h (0 Bft) N 0 0 min -9,5 C -7,8 C 0,0 km/h (0 Bft)
25.03.2020 04:25 -5,7 C 4,7 C -6,1 C -6,6 C -8,3 C 0,0 C 75 % 80 % 1033,8 hPa 0,0 l/m 0,0 km/h (0 Bft) N-NO 22 0 min -9,4 C -8,3 C 0,0 km/h (0 Bft)
25.03.2020 04:40 -6,0 C 4,6 C -6,3 C -6,7 C -8,0 C 0,0 C 75 % 82 % 1033,6 hPa 0,0 l/m 0,8 km/h (0 Bft) O-NO 67 0 min -9,7 C -8,0 C 1,9 km/h (1 Bft)
25.03.2020 04:45 -5,9 C 4,6 C -6,1 C -6,5 C -7,6 C 0,0 C 76 % 82 % 1033,6 hPa 0,0 l/m 1,0 km/h (0 Bft) SW 225 0 min -9,4 C -7,6 C 0,0 km/h (0 Bft)
25.03.2020 04:50 -5,9 C 4,6 C -6,1 C -6,5 C -7,8 C 0,0 C 77 % 81 % 1033,6 hPa 0,0 l/m 0,3 km/h (0 Bft) SW 225 0 min -9,3 C -7,8 C 0,0 km/h (0 Bft)
25.03.2020 04:55 -6,1 C 4,6 C -6,3 C -6,8 C -8,1 C 0,0 C 77 % 81 % 1033,6 hPa 0,0 l/m 0,2 km/h (0 Bft) N-NW 337 0 min -9,5 C -8,1 C 0,0 km/h (0 Bft)
25.03.2020 05:00 -6,1 C 4,6 C -6,5 C -6,8 C -8,3 C 0,0 C 77 % 81 % 1033,2 hPa 0,0 l/m 0,2 km/h (0 Bft) SW 225 0 min -9,5 C -8,3 C 0,0 km/h (0 Bft)
25.03.2020 05:05 -6,4 C 4,6 C -6,5 C -7,1 C -8,5 C 0,0 C 76 % 82 % 1033,2 hPa 0,0 l/m 0,0 km/h (0 Bft) NO 45 0 min -9,9 C -8,5 C 0,0 km/h (0 Bft)
25.03.2020 05:10 -6,4 C 4,6 C -6,5 C -7,1 C -8,5 C 0,0 C 76 % 82 % 1033,2 hPa 0,0 l/m 0,0 km/h (0 Bft) N 360 0 min -9,9 C -8,5 C 0,0 km/h (0 Bft)
25.03.2020 05:15 -6,5 C 4,5 C -6,6 C -7,2 C -8,6 C 0,0 C 77 % 81 % 1033,2 hPa 0,0 l/m 0,0 km/h (0 Bft) N-NO 22 0 min -9,8 C -8,6 C 0,0 km/h (0 Bft)
25.03.2020 05:20 -6,6 C 4,5 C -6,6 C -7,3 C -8,7 C 0,0 C 77 % 81 % 1033,2 hPa 0,0 l/m 0,0 km/h (0 Bft) S-SW 202 0 min -9,9 C -8,7 C 0,0 km/h (0 Bft)
25.03.2020 05:25 -6,6 C 4,5 C -6,6 C -7,3 C -8,8 C 0,0 C 77 % 82 % 1033,2 hPa 0,0 l/m 0,0 km/h (0 Bft) S-SO 157 0 min -9,9 C -8,8 C 0,0 km/h (0 Bft)
25.03.2020 05:30 -6,5 C 4,5 C -6,7 C -7,2 C -8,7 C 0,0 C 77 % 81 % 1033,2 hPa 0,0 l/m 0,0 km/h (0 Bft) N-NO 22 0 min -9,8 C -8,7 C 0,0 km/h (0 Bft)
25.03.2020 05:35 -6,7 C 4,5 C -6,7 C -7,4 C -8,8 C 0,0 C 78 % 82 % 1033,2 hPa 0,0 l/m 0,0 km/h (0 Bft) O 90 0 min -9,9 C -8,8 C 0,0 km/h (0 Bft)
25.03.2020 05:40 -6,8 C 4,5 C -6,8 C -7,5 C -8,8 C 0,0 C 77 % 82 % 1033,4 hPa 0,0 l/m 0,0 km/h (0 Bft) O 90 0 min -10,1 C -8,8 C 0,0 km/h (0 Bft)
25.03.2020 05:45 -6,7 C 4,5 C -6,9 C -7,4 C -8,9 C 0,0 C 78 % 82 % 1033,4 hPa 0,0 l/m 0,0 km/h (0 Bft) S 180 0 min -9,9 C -8,9 C 0,0 km/h (0 Bft)
25.03.2020 05:50 -6,9 C 4,5 C -6,8 C -7,6 C -9,1 C 0,0 C 78 % 82 % 1033,4 hPa 0,0 l/m 0,0 km/h (0 Bft) S 180 0 min -10,1 C -9,1 C 0,0 km/h (0 Bft)
25.03.2020 05:55 -6,8 C 4,4 C -6,9 C -7,5 C -8,8 C 0,0 C 79 % 82 % 1033,4 hPa 0,0 l/m 0,0 km/h (0 Bft) N-NW 337 0 min -9,8 C -8,8 C 0,0 km/h (0 Bft)
25.03.2020 06:00 -6,7 C 4,4 C -6,8 C -7,4 C -8,8 C 0,0 C 79 % 82 % 1033,4 hPa 0,0 l/m 0,2 km/h (0 Bft) NO 45 0 min -9,7 C -8,8 C 0,0 km/h (0 Bft)
25.03.2020 06:05 -6,9 C 4,4 C -6,8 C -7,5 C -8,6 C 0,0 C 79 % 82 % 1033,4 hPa 0,0 l/m 0,6 km/h (0 Bft) NO 45 0 min -9,9 C -8,6 C 0,0 km/h (0 Bft)
25.03.2020 06:11 -6,9 C 4,4 C -6,8 C -7,4 C -8,5 C 0,0 C 79 % 83 % 1033,4 hPa 0,0 l/m 0,3 km/h (0 Bft) N 0 0 min -9,9 C -8,5 C 0,0 km/h (0 Bft)
25.03.2020 06:25 -6,9 C 4,4 C -6,9 C -7,4 C -8,4 C 0,0 C 79 % 83 % 1033,4 hPa 0,0 l/m 0,0 km/h (0 Bft) O-NO 67 0 min -9,9 C -8,4 C 0,0 km/h (0 Bft)
25.03.2020 06:36 -6,9 C 4,2 C -6,6 C -5,6 C -5,6 C 1,3 C 80 % 83 % 1033,4 hPa 0,0 l/m 0,0 km/h (0 Bft) O-NO 67 11 min -9,8 C -5,6 C 0,0 km/h (0 Bft)
25.03.2020 06:40 -6,9 C 4,2 C -6,3 C -4,4 C -4,4 C 2,5 C 80 % 83 % 1033,6 hPa 0,0 l/m 0,0 km/h (0 Bft) W 270 4 min -9,8 C -4,4 C 0,0 km/h (0 Bft)
25.03.2020 06:45 -6,7 C 4,2 C -5,9 C -2,7 C -2,7 C 4,0 C 81 % 83 % 1033,6 hPa 0,0 l/m 0,0 km/h (0 Bft) W 270 5 min -9,4 C -2,7 C 0,0 km/h (0 Bft)
25.03.2020 06:50 -6,3 C 4,2 C -5,5 C -1,6 C -1,6 C 4,7 C 81 % 83 % 1033,6 hPa 0,0 l/m 0,0 km/h (0 Bft) W 270 5 min -9,0 C -1,6 C 0,0 km/h (0 Bft)
25.03.2020 06:55 -5,7 C 4,2 C -4,9 C -0,1 C -0,1 C 5,6 C 82 % 83 % 1033,6 hPa 0,0 l/m 0,0 km/h (0 Bft) W 270 5 min -8,3 C -0,1 C 0,0 km/h (0 Bft)
25.03.2020 07:00 -5,5 C 4,2 C -4,7 C 0,9 C 0,9 C 6,4 C 82 % 83 % 1033,6 hPa 0,0 l/m 0,0 km/h (0 Bft) W-SW 247 5 min -8,1 C 0,9 C 0,0 km/h (0 Bft)
25.03.2020 07:05 -5,3 C 4,2 C -4,4 C 2,1 C 2,1 C 7,4 C 82 % 82 % 1033,6 hPa 0,0 l/m 0,0 km/h (0 Bft) W-SW 247 5 min -7,9 C 2,1 C 0,0 km/h (0 Bft)
25.03.2020 07:10 -5,3 C 4,2 C -4,3 C 2,9 C 2,9 C 8,2 C 82 % 82 % 1033,6 hPa 0,0 l/m 0,0 km/h (0 Bft) W-SW 247 5 min -7,9 C 2,9 C 0,0 km/h (0 Bft)
25.03.2020 07:15 -5,2 C 4,2 C -4,3 C 3,8 C 3,8 C 9,0 C 83 % 81 % 1033,6 hPa 0,0 l/m 0,0 km/h (0 Bft) W-SW 247 5 min -7,6 C 3,8 C 0,0 km/h (0 Bft)
25.03.2020 07:20 -4,9 C 4,2 C -3,9 C 4,5 C 4,5 C 9,4 C 83 % 81 % 1033,6 hPa 0,0 l/m 0,0 km/h (0 Bft) W-SW 247 5 min -7,3 C 4,5 C 0,0 km/h (0 Bft)
25.03.2020 07:25 -4,8 C 4,1 C -3,8 C 5,6 C 5,6 C 10,4 C 83 % 81 % 1033,6 hPa 0,0 l/m 0,0 km/h (0 Bft) SW 225 5 min -7,2 C 5,6 C 0,0 km/h (0 Bft)
25.03.2020 07:30 -4,7 C 4,1 C -3,7 C 6,2 C 6,2 C 10,9 C 83 % 80 % 1033,6 hPa 0,0 l/m 0,0 km/h (0 Bft) W-SW 247 5 min -7,1 C 6,2 C 0,0 km/h (0 Bft)
25.03.2020 07:35 -4,5 C 4,1 C -3,8 C 7,0 C 7,0 C 11,5 C 83 % 80 % 1033,6 hPa 0,0 l/m 0,0 km/h (0 Bft) W-SW 247 5 min -6,9 C 7,0 C 0,0 km/h (0 Bft)
25.03.2020 07:40 -4,3 C 4,1 C -3,6 C 7,6 C 7,6 C 11,9 C 83 % 80 % 1033,6 hPa 0,0 l/m 0,0 km/h (0 Bft) W-SW 247 5 min -6,7 C 7,6 C 0,0 km/h (0 Bft)
25.03.2020 07:45 -3,9 C 4,1 C -3,2 C 8,5 C 8,5 C 12,4 C 83 % 80 % 1033,6 hPa 0,0 l/m 0,0 km/h (0 Bft) W 270 5 min -6,4 C 8,5 C 0,0 km/h (0 Bft)
25.03.2020 07:50 -3,7 C 4,1 C -3,2 C 8,5 C 8,5 C 12,2 C 83 % 79 % 1033,6 hPa 0,0 l/m 0,0 km/h (0 Bft) NW 315 5 min -6,2 C 8,5 C 0,0 km/h (0 Bft)
25.03.2020 07:55 -3,6 C 4,1 C -3,1 C 7,5 C 7,5 C 11,1 C 81 % 78 % 1033,6 hPa 0,0 l/m 0,2 km/h (0 Bft) O 90 5 min -6,4 C 7,5 C 0,0 km/h (0 Bft)
25.03.2020 08:00 -3,1 C 4,1 C -2,9 C 7,3 C 7,3 C 10,4 C 82 % 77 % 1033,6 hPa 0,0 l/m 0,2 km/h (0 Bft) SO 135 5 min -5,7 C 7,3 C 0,0 km/h (0 Bft)
25.03.2020 08:05 -2,3 C 4,0 C -2,7 C 6,4 C 6,4 C 8,7 C 80 % 77 % 1033,6 hPa 0,0 l/m 1,0 km/h (0 Bft) O-SO 112 5 min -5,3 C 6,4 C 1,8 km/h (1 Bft)
25.03.2020 08:11 -2,1 C 4,0 C -2,5 C 6,0 C 6,0 C 8,1 C 80 % 76 % 1033,6 hPa 0,0 l/m 1,3 km/h (1 Bft) N 0 6 min -5,1 C 6,0 C 0,0 km/h (0 Bft)
25.03.2020 08:25 -1,3 C 4,1 C -1,5 C 7,4 C 7,4 C 8,7 C 75 % 75 % 1033,4 hPa 0,0 l/m 0,6 km/h (0 Bft) NW 315 14 min -5,1 C 7,4 C 0,0 km/h (0 Bft)
25.03.2020 08:40 -0,7 C 4,0 C -0,7 C 10,1 C 10,1 C 10,8 C 73 % 72 % 1033,4 hPa 0,0 l/m 0,6 km/h (0 Bft) NW 315 15 min -4,9 C 10,1 C 3,2 km/h (1 Bft)
25.03.2020 08:45 -0,1 C 4,0 C 0,0 C 9,0 C 9,0 C 9,1 C 72 % 71 % 1033,4 hPa 0,0 l/m 1,6 km/h (1 Bft) NO 45 5 min -4,5 C 9,0 C 6,9 km/h (2 Bft)
25.03.2020 08:50 0,3 C 4,0 C 0,8 C 7,0 C 7,0 C 6,7 C 70 % 64 % 1033,4 hPa 0,0 l/m 3,1 km/h (1 Bft) O-NO 67 5 min -4,5 C 7,0 C 4,5 km/h (1 Bft)
25.03.2020 08:55 0,7 C 4,0 C 1,6 C 4,0 C 4,0 C 3,3 C 66 % 61 % 1033,4 hPa 0,0 l/m 5,5 km/h (1 Bft) O-NO 67 5 min -4,9 C 2,8 C 9,2 km/h (2 Bft)
25.03.2020 09:00 0,8 C 4,0 C 2,0 C 4,3 C 4,3 C 3,5 C 63 % 57 % 1033,4 hPa 0,0 l/m 6,0 km/h (2 Bft) O-NO 67 5 min -5,4 C 2,9 C 8,0 km/h (2 Bft)
25.03.2020 09:05 1,1 C 4,0 C 1,9 C 4,2 C 4,2 C 3,1 C 60 % 56 % 1033,4 hPa 0,0 l/m 6,3 km/h (2 Bft) NO 45 0 min -5,8 C 2,7 C 12,1 km/h (2 Bft)
25.03.2020 09:10 1,2 C 4,0 C 2,0 C 4,4 C 4,4 C 3,2 C 58 % 54 % 1033,4 hPa 0,0 l/m 6,1 km/h (2 Bft) O-NO 67 0 min -6,1 C 3,0 C 3,7 km/h (1 Bft)
25.03.2020 09:15 1,5 C 4,0 C 2,5 C 3,7 C 3,7 C 2,2 C 56 % 53 % 1033,4 hPa 0,0 l/m 7,4 km/h (2 Bft) O-NO 67 0 min -6,3 C 1,8 C 13,8 km/h (3 Bft)
25.03.2020 09:20 1,6 C 4,0 C 3,1 C 3,7 C 3,7 C 2,1 C 56 % 53 % 1033,1 hPa 0,0 l/m 6,9 km/h (2 Bft) NO 45 0 min -6,2 C 1,9 C 5,8 km/h (2 Bft)
25.03.2020 09:25 2,0 C 4,0 C 3,4 C 3,8 C 3,8 C 1,8 C 56 % 51 % 1033,1 hPa 0,0 l/m 5,6 km/h (1 Bft) O-NO 67 0 min -5,8 C 2,5 C 4,8 km/h (1 Bft)
25.03.2020 09:30 2,0 C 4,1 C 3,9 C 3,4 C 3,4 C 1,4 C 55 % 51 % 1033,1 hPa 0,0 l/m 5,8 km/h (2 Bft) NO 45 0 min -6,1 C 2,0 C 7,9 km/h (2 Bft)
25.03.2020 09:35 2,4 C 4,1 C 5,0 C 4,3 C 4,3 C 1,9 C 53 % 47 % 1033,1 hPa 0,0 l/m 5,8 km/h (2 Bft) O-NO 67 0 min -6,2 C 3,0 C 8,7 km/h (2 Bft)
25.03.2020 09:40 2,5 C 3,9 C 5,2 C 3,6 C 3,6 C 1,1 C 52 % 44 % 1032,7 hPa 0,0 l/m 6,6 km/h (2 Bft) NO 45 0 min -6,3 C 1,9 C 7,7 km/h (2 Bft)
25.03.2020 09:45 2,7 C 4,1 C 5,4 C 4,5 C 4,1 C 1,8 C 50 % 42 % 1032,7 hPa 0,0 l/m 8,0 km/h (2 Bft) NO 45 0 min -6,7 C 2,1 C 16,6 km/h (3 Bft)
25.03.2020 09:50 2,7 C 4,1 C 5,3 C 4,1 C 4,1 C 1,4 C 49 % 42 % 1032,7 hPa 0,0 l/m 7,7 km/h (2 Bft) O-NO 67 0 min -6,9 C 2,2 C 7,6 km/h (2 Bft)
25.03.2020 09:55 2,9 C 4,1 C 5,5 C 4,4 C 3,6 C 1,5 C 48 % 42 % 1032,7 hPa 0,0 l/m 7,9 km/h (2 Bft) O-NO 67 0 min -7,0 C 1,5 C 12,2 km/h (2 Bft)
25.03.2020 10:00 3,1 C 4,0 C 5,7 C 4,0 C 3,2 C 0,9 C 47 % 40 % 1032,7 hPa 0,0 l/m 8,0 km/h (2 Bft) NO 45 0 min -7,1 C 1,0 C 5,8 km/h (2 Bft)
25.03.2020 10:05 3,3 C 4,0 C 5,2 C 4,7 C 4,6 C 1,4 C 46 % 37 % 1032,7 hPa 0,0 l/m 8,0 km/h (2 Bft) NO 45 0 min -7,2 C 2,7 C 9,2 km/h (2 Bft)
25.03.2020 10:11 3,5 C 4,0 C 4,8 C 4,7 C 3,8 C 1,2 C 44 % 38 % 1032,7 hPa 0,0 l/m 8,5 km/h (2 Bft) N 0 0 min -7,6 C 1,6 C 11,7 km/h (2 Bft)
25.03.2020 10:25 4,1 C 4,0 C 4,5 C 4,1 C 3,0 C 0,0 C 41 % 39 % 1032,6 hPa 0,0 l/m 10,0 km/h (2 Bft) O-NO 67 0 min -7,9 C 0,3 C 16,7 km/h (3 Bft)
25.03.2020 10:40 4,3 C 4,0 C 4,5 C 4,9 C 4,8 C 0,6 C 40 % 38 % 1032,6 hPa 0,0 l/m 9,8 km/h (2 Bft) N-NO 22 0 min -8,1 C 2,5 C 16,9 km/h (3 Bft)
25.03.2020 10:45 4,3 C 4,1 C 4,5 C 4,9 C 3,8 C 0,6 C 39 % 37 % 1032,6 hPa 0,0 l/m 10,0 km/h (2 Bft) O-NO 67 0 min -8,4 C 1,2 C 17,4 km/h (3 Bft)
25.03.2020 10:50 4,4 C 4,1 C 4,6 C 4,2 C 3,8 C 0,0 C 39 % 38 % 1032,6 hPa 0,0 l/m 9,0 km/h (2 Bft) O-NO 67 0 min -8,3 C 1,5 C 10,3 km/h (2 Bft)
25.03.2020 10:55 4,7 C 4,1 C 4,7 C 4,7 C 4,1 C 0,0 C 38 % 37 % 1032,6 hPa 0,0 l/m 8,0 km/h (2 Bft) O 90 0 min -8,4 C 2,1 C 8,5 km/h (2 Bft)
25.03.2020 11:00 4,9 C 4,1 C 4,9 C 4,9 C 4,3 C 0,0 C 38 % 36 % 1032,6 hPa 0,0 l/m 8,7 km/h (2 Bft) O-NO 67 0 min -8,2 C 2,1 C 14,6 km/h (3 Bft)
25.03.2020 11:05 4,9 C 4,1 C 5,0 C 5,0 C 4,4 C 0,1 C 37 % 36 % 1032,6 hPa 0,0 l/m 9,2 km/h (2 Bft) O-NO 67 0 min -8,5 C 2,1 C 10,5 km/h (2 Bft)
25.03.2020 11:10 5,0 C 4,1 C 6,6 C 5,2 C 4,7 C 0,2 C 37 % 35 % 1032,6 hPa 0,0 l/m 9,0 km/h (2 Bft) O-NO 67 0 min -8,5 C 2,5 C 13,4 km/h (3 Bft)
25.03.2020 11:15 5,1 C 4,1 C 8,3 C 5,5 C 5,0 C 0,4 C 36 % 30 % 1032,6 hPa 0,0 l/m 9,7 km/h (2 Bft) O-NO 67 0 min -8,7 C 2,7 C 18,7 km/h (3 Bft)
25.03.2020 11:20 5,3 C 4,1 C 8,6 C 6,0 C 5,5 C 0,7 C 35 % 29 % 1032,2 hPa 0,0 l/m 10,8 km/h (2 Bft) NO 45 0 min -8,9 C 3,1 C 13,2 km/h (3 Bft)
25.03.2020 11:25 5,5 C 4,1 C 9,5 C 6,5 C 6,0 C 1,0 C 35 % 28 % 1032,2 hPa 0,0 l/m 10,6 km/h (2 Bft) O-NO 67 0 min -8,7 C 3,7 C 21,2 km/h (4 Bft)
25.03.2020 11:30 5,5 C 4,1 C 10,1 C 6,0 C 6,0 C 0,5 C 35 % 28 % 1032,2 hPa 0,0 l/m 9,7 km/h (2 Bft) O-NO 67 0 min -8,7 C 3,9 C 13,7 km/h (3 Bft)
25.03.2020 11:35 5,6 C 4,2 C 10,7 C 7,0 C 6,6 C 1,4 C 34 % 27 % 1032,2 hPa 0,0 l/m 9,8 km/h (2 Bft) O-NO 67 0 min -9,0 C 4,6 C 13,2 km/h (3 Bft)
25.03.2020 11:40 5,7 C 4,2 C 10,6 C 7,5 C 7,2 C 1,8 C 35 % 28 % 1032,2 hPa 0,0 l/m 9,8 km/h (2 Bft) N-NO 22 0 min -8,5 C 5,3 C 4,3 km/h (1 Bft)
25.03.2020 11:45 6,0 C 4,2 C 10,5 C 8,5 C 8,6 C 2,5 C 35 % 28 % 1032,2 hPa 0,0 l/m 7,9 km/h (2 Bft) NO 45 0 min -8,3 C 7,4 C 10,8 km/h (2 Bft)
25.03.2020 11:50 6,0 C 4,2 C 10,3 C 9,2 C 9,2 C 3,2 C 35 % 28 % 1032,2 hPa 0,0 l/m 7,2 km/h (2 Bft) O-NO 67 0 min -8,3 C 8,2 C 8,7 km/h (2 Bft)
25.03.2020 11:55 6,1 C 4,3 C 9,8 C 9,8 C 9,6 C 3,7 C 35 % 28 % 1032,2 hPa 0,0 l/m 7,9 km/h (2 Bft) NO 45 5 min -8,2 C 8,6 C 8,7 km/h (2 Bft)
25.03.2020 12:00 6,0 C 4,3 C 9,9 C 9,9 C 9,9 C 3,9 C 35 % 27 % 1032,2 hPa 0,0 l/m 7,1 km/h (2 Bft) O-NO 67 5 min -8,3 C 9,1 C 6,4 km/h (2 Bft)
25.03.2020 12:05 6,1 C 4,3 C 10,3 C 10,6 C 10,6 C 4,5 C 36 % 29 % 1032,2 hPa 0,0 l/m 6,6 km/h (2 Bft) NO 45 5 min -7,8 C 10,6 C 13,2 km/h (3 Bft)
25.03.2020 12:11 6,1 C 4,3 C 10,3 C 10,6 C 10,6 C 4,5 C 36 % 29 % 1032,2 hPa 0,0 l/m 6,6 km/h (2 Bft) N 0 6 min -7,8 C 10,6 C 13,2 km/h (3 Bft)
25.03.2020 12:25 6,1 C 4,4 C 7,9 C 10,0 C 9,1 C 3,9 C 37 % 32 % 1032,2 hPa 0,0 l/m 9,0 km/h (2 Bft) O-NO 67 14 min -7,5 C 7,7 C 9,0 km/h (2 Bft)
25.03.2020 12:36 6,2 C 4,4 C 8,2 C 9,5 C 9,2 C 3,3 C 37 % 32 % 1032,2 hPa 0,0 l/m 9,0 km/h (2 Bft) O-NO 67 11 min -7,4 C 7,9 C 14,0 km/h (3 Bft)
25.03.2020 12:40 6,1 C 4,4 C 8,1 C 9,3 C 8,7 C 3,2 C 37 % 31 % 1032,0 hPa 0,0 l/m 10,5 km/h (2 Bft) NO 45 0 min -7,5 C 7,0 C 16,4 km/h (3 Bft)
25.03.2020 12:45 6,0 C 4,4 C 8,6 C 9,1 C 8,6 C 3,1 C 37 % 31 % 1032,0 hPa 0,0 l/m 10,1 km/h (2 Bft) NO 45 0 min -7,6 C 6,9 C 5,6 km/h (1 Bft)
25.03.2020 12:50 6,1 C 4,4 C 8,1 C 9,2 C 8,9 C 3,1 C 37 % 32 % 1032,0 hPa 0,0 l/m 9,7 km/h (2 Bft) O-NO 67 0 min -7,5 C 7,4 C 10,1 km/h (2 Bft)
25.03.2020 12:55 6,2 C 4,4 C 8,1 C 9,7 C 9,7 C 3,5 C 37 % 31 % 1032,0 hPa 0,0 l/m 8,2 km/h (2 Bft) N-NO 22 5 min -7,4 C 8,6 C 6,9 km/h (2 Bft)
25.03.2020 13:00 6,3 C 4,5 C 8,3 C 10,1 C 9,8 C 3,8 C 37 % 32 % 1032,0 hPa 0,0 l/m 8,4 km/h (2 Bft) NO 45 5 min -7,3 C 8,7 C 11,4 km/h (2 Bft)
25.03.2020 13:05 6,4 C 4,5 C 8,7 C 10,2 C 9,9 C 3,8 C 37 % 32 % 1032,0 hPa 0,0 l/m 8,7 km/h (2 Bft) N-NO 22 5 min -7,2 C 8,7 C 6,8 km/h (2 Bft)
25.03.2020 13:10 6,6 C 4,5 C 8,5 C 10,5 C 10,4 C 3,9 C 37 % 32 % 1032,0 hPa 0,0 l/m 8,4 km/h (2 Bft) N-NO 22 5 min -7,0 C 10,4 C 9,0 km/h (2 Bft)
25.03.2020 13:15 6,8 C 4,5 C 8,3 C 10,9 C 10,8 C 4,1 C 37 % 32 % 1032,0 hPa 0,0 l/m 7,9 km/h (2 Bft) N-NO 22 5 min -6,8 C 10,8 C 9,3 km/h (2 Bft)
25.03.2020 13:20 6,8 C 4,5 C 8,2 C 10,9 C 10,6 C 4,1 C 37 % 32 % 1031,7 hPa 0,0 l/m 8,5 km/h (2 Bft) O 90 5 min -6,8 C 10,6 C 12,9 km/h (3 Bft)
25.03.2020 13:25 6,8 C 4,6 C 8,7 C 10,6 C 10,0 C 3,8 C 36 % 34 % 1031,7 hPa 0,0 l/m 9,7 km/h (2 Bft) O-NO 67 5 min -7,2 C 8,7 C 12,7 km/h (3 Bft)
25.03.2020 13:30 6,9 C 4,6 C 8,6 C 10,5 C 10,2 C 3,6 C 37 % 32 % 1031,7 hPa 0,0 l/m 9,5 km/h (2 Bft) O-NO 67 5 min -6,8 C 10,2 C 10,8 km/h (2 Bft)
25.03.2020 13:35 6,9 C 4,6 C 7,9 C 10,6 C 10,3 C 3,7 C 36 % 34 % 1031,7 hPa 0,0 l/m 8,9 km/h (2 Bft) NO 45 5 min -7,1 C 10,3 C 9,0 km/h (2 Bft)
25.03.2020 13:40 7,1 C 4,6 C 7,9 C 10,8 C 10,7 C 3,7 C 37 % 34 % 1031,5 hPa 0,0 l/m 8,4 km/h (2 Bft) N-NO 22 5 min -6,6 C 10,7 C 11,3 km/h (2 Bft)
25.03.2020 13:45 7,1 C 4,6 C 7,5 C 10,7 C 10,7 C 3,6 C 36 % 34 % 1031,5 hPa 0,0 l/m 8,2 km/h (2 Bft) O-NO 67 5 min -6,9 C 10,7 C 8,9 km/h (2 Bft)
25.03.2020 13:50 7,1 C 4,7 C 7,5 C 10,7 C 10,7 C 3,6 C 36 % 34 % 1031,5 hPa 0,0 l/m 8,7 km/h (2 Bft) O-NO 67 5 min -6,9 C 10,7 C 6,3 km/h (2 Bft)
25.03.2020 13:55 7,2 C 4,7 C 7,9 C 10,9 C 10,5 C 3,7 C 36 % 34 % 1031,5 hPa 0,0 l/m 8,9 km/h (2 Bft) O-NO 67 5 min -6,8 C 10,5 C 4,3 km/h (1 Bft)
25.03.2020 14:00 7,3 C 4,7 C 7,9 C 10,9 C 10,6 C 3,6 C 35 % 34 % 1031,1 hPa 0,0 l/m 9,2 km/h (2 Bft) NO 45 5 min -7,1 C 10,6 C 11,1 km/h (2 Bft)
25.03.2020 14:05 7,2 C 4,7 C 7,5 C 10,7 C 10,2 C 3,5 C 35 % 34 % 1031,1 hPa 0,0 l/m 9,8 km/h (2 Bft) NO 45 5 min -7,2 C 10,2 C 22,0 km/h (4 Bft)
25.03.2020 14:11 7,2 C 4,8 C 7,5 C 10,5 C 10,1 C 3,3 C 35 % 34 % 1031,1 hPa 0,0 l/m 10,3 km/h (2 Bft) N 0 6 min -7,2 C 10,1 C 9,5 km/h (2 Bft)
25.03.2020 14:25 7,6 C 4,8 C 7,8 C 10,9 C 10,8 C 3,3 C 35 % 34 % 1030,8 hPa 0,0 l/m 9,0 km/h (2 Bft) O 90 14 min -6,9 C 10,8 C 10,5 km/h (2 Bft)
25.03.2020 14:40 7,7 C 5,0 C 7,7 C 11,2 C 10,9 C 3,5 C 33 % 32 % 1030,8 hPa 0,0 l/m 9,7 km/h (2 Bft) O-NO 67 15 min -7,5 C 10,9 C 13,4 km/h (3 Bft)
25.03.2020 14:45 7,7 C 5,0 C 7,9 C 10,8 C 10,1 C 3,1 C 33 % 34 % 1030,8 hPa 0,0 l/m 12,2 km/h (2 Bft) N-NO 22 0 min -7,5 C 10,1 C 10,9 km/h (2 Bft)
25.03.2020 14:50 7,9 C 5,0 C 7,9 C 11,0 C 10,9 C 3,1 C 34 % 32 % 1030,8 hPa 0,0 l/m 10,0 km/h (2 Bft) NO 45 0 min -7,0 C 10,9 C 10,3 km/h (2 Bft)
25.03.2020 14:55 7,9 C 5,1 C 7,8 C 11,3 C 11,2 C 3,4 C 33 % 34 % 1030,8 hPa 0,0 l/m 8,2 km/h (2 Bft) O-NO 67 5 min -7,4 C 11,2 C 9,5 km/h (2 Bft)
25.03.2020 15:00 8,0 C 5,1 C 7,9 C 11,6 C 11,5 C 3,6 C 34 % 34 % 1030,2 hPa 0,0 l/m 7,9 km/h (2 Bft) NO 45 5 min -6,9 C 11,5 C 8,7 km/h (2 Bft)
25.03.2020 15:05 8,0 C 5,1 C 7,9 C 11,9 C 11,9 C 3,9 C 35 % 34 % 1030,2 hPa 0,0 l/m 6,9 km/h (2 Bft) N-NW 337 5 min -6,5 C 11,9 C 6,6 km/h (2 Bft)
25.03.2020 15:10 8,0 C 5,1 C 7,8 C 12,2 C 12,2 C 4,2 C 35 % 36 % 1030,2 hPa 0,0 l/m 6,4 km/h (2 Bft) NO 45 5 min -6,5 C 12,2 C 10,0 km/h (2 Bft)
25.03.2020 15:15 8,0 C 5,1 C 7,9 C 12,1 C 12,1 C 4,1 C 35 % 34 % 1030,2 hPa 0,0 l/m 6,9 km/h (2 Bft) O 90 5 min -6,5 C 12,1 C 9,5 km/h (2 Bft)
25.03.2020 15:20 8,0 C 5,1 C 7,9 C 12,0 C 11,7 C 4,0 C 35 % 34 % 1030,0 hPa 0,0 l/m 7,9 km/h (2 Bft) O-NO 67 5 min -6,5 C 11,7 C 9,7 km/h (2 Bft)
25.03.2020 15:25 8,0 C 5,2 C 7,8 C 11,7 C 11,3 C 3,7 C 35 % 35 % 1030,0 hPa 0,0 l/m 8,0 km/h (2 Bft) NO 45 5 min -6,5 C 11,3 C 11,4 km/h (2 Bft)
25.03.2020 15:30 8,1 C 5,2 C 7,8 C 11,3 C 11,3 C 3,2 C 35 % 34 % 1030,0 hPa 0,0 l/m 8,2 km/h (2 Bft) N-NW 337 0 min -6,4 C 11,3 C 9,7 km/h (2 Bft)
25.03.2020 15:35 7,9 C 5,2 C 7,7 C 11,3 C 10,8 C 3,4 C 34 % 33 % 1030,0 hPa 0,0 l/m 9,0 km/h (2 Bft) O-NO 67 5 min -7,0 C 10,8 C 12,2 km/h (2 Bft)
25.03.2020 15:40 7,9 C 5,2 C 7,7 C 11,2 C 11,0 C 3,3 C 34 % 35 % 1030,1 hPa 0,0 l/m 8,2 km/h (2 Bft) O-NO 67 5 min -7,0 C 11,0 C 9,8 km/h (2 Bft)
25.03.2020 15:45 8,0 C 5,2 C 7,8 C 11,2 C 10,9 C 3,2 C 34 % 33 % 1030,1 hPa 0,0 l/m 7,9 km/h (2 Bft) N-NO 22 0 min -6,9 C 10,9 C 13,5 km/h (3 Bft)
25.03.2020 15:50 7,9 C 5,2 C 7,7 C 10,8 C 10,4 C 2,9 C 34 % 33 % 1030,1 hPa 0,0 l/m 8,4 km/h (2 Bft) N-NO 22 0 min -7,0 C 10,4 C 8,2 km/h (2 Bft)
25.03.2020 15:55 7,9 C 5,3 C 7,7 C 10,6 C 10,3 C 2,7 C 34 % 33 % 1030,1 hPa 0,0 l/m 8,9 km/h (2 Bft) O 90 0 min -7,0 C 10,3 C 15,3 km/h (3 Bft)
25.03.2020 16:00 7,9 C 5,3 C 7,7 C 10,5 C 10,1 C 2,6 C 34 % 33 % 1029,7 hPa 0,0 l/m 9,2 km/h (2 Bft) NO 45 0 min -7,0 C 10,1 C 19,0 km/h (3 Bft)
25.03.2020 16:05 7,8 C 5,3 C 7,5 C 10,0 C 9,3 C 2,2 C 33 % 33 % 1029,7 hPa 0,0 l/m 10,1 km/h (2 Bft) O-NO 67 0 min -7,4 C 7,8 C 12,2 km/h (2 Bft)
25.03.2020 16:11 7,7 C 5,3 C 7,5 C 9,5 C 8,9 C 1,8 C 33 % 34 % 1029,7 hPa 0,0 l/m 10,0 km/h (2 Bft) N 0 0 min -7,5 C 7,3 C 10,9 km/h (2 Bft)
25.03.2020 16:26 7,6 C 5,3 C 7,4 C 8,2 C 8,2 C 0,6 C 34 % 33 % 1029,8 hPa 0,0 l/m 10,0 km/h (2 Bft) NO 45 0 min -7,2 C 6,5 C 13,8 km/h (3 Bft)
25.03.2020 16:40 7,6 C 5,5 C 7,4 C 8,4 C 7,9 C 0,8 C 33 % 34 % 1029,6 hPa 0,0 l/m 8,4 km/h (2 Bft) NO 45 0 min -7,6 C 6,5 C 10,1 km/h (2 Bft)
25.03.2020 16:45 7,6 C 5,5 C 7,3 C 8,5 C 8,2 C 0,9 C 34 % 35 % 1029,6 hPa 0,0 l/m 8,2 km/h (2 Bft) NO 45 0 min -7,2 C 6,8 C 7,2 km/h (2 Bft)
25.03.2020 16:50 7,6 C 5,5 C 7,2 C 8,2 C 8,2 C 0,6 C 34 % 35 % 1029,6 hPa 0,0 l/m 7,9 km/h (2 Bft) NO 45 0 min -7,2 C 6,9 C 11,4 km/h (2 Bft)
25.03.2020 16:55 7,4 C 5,5 C 7,1 C 8,4 C 7,9 C 1,0 C 34 % 35 % 1029,6 hPa 0,0 l/m 8,0 km/h (2 Bft) NO 45 0 min -7,4 C 6,5 C 9,2 km/h (2 Bft)
25.03.2020 17:00 7,4 C 5,5 C 7,1 C 8,1 C 7,6 C 0,7 C 35 % 35 % 1029,5 hPa 0,0 l/m 8,4 km/h (2 Bft) O-NO 67 0 min -7,0 C 6,1 C 15,9 km/h (3 Bft)
25.03.2020 17:05 7,2 C 5,6 C 6,9 C 7,7 C 7,0 C 0,5 C 35 % 35 % 1029,5 hPa 0,0 l/m 9,2 km/h (2 Bft) O-NO 67 0 min -7,2 C 5,2 C 18,0 km/h (3 Bft)
25.03.2020 17:10 7,1 C 5,6 C 6,8 C 7,3 C 6,6 C 0,2 C 34 % 35 % 1029,5 hPa 0,0 l/m 10,1 km/h (2 Bft) O-NO 67 0 min -7,7 C 4,5 C 11,7 km/h (2 Bft)
25.03.2020 17:15 7,1 C 5,6 C 6,7 C 7,1 C 6,3 C 0,0 C 35 % 36 % 1029,5 hPa 0,0 l/m 9,8 km/h (2 Bft) NO 45 0 min -7,3 C 4,3 C 8,2 km/h (2 Bft)
25.03.2020 17:20 7,1 C 5,6 C 6,6 C 7,0 C 6,2 C 0,0 C 35 % 36 % 1029,6 hPa 0,0 l/m 9,3 km/h (2 Bft) NO 45 0 min -7,3 C 4,2 C 10,3 km/h (2 Bft)
25.03.2020 17:25 6,8 C 5,6 C 6,4 C 6,8 C 6,3 C 0,0 C 35 % 36 % 1029,6 hPa 0,0 l/m 9,0 km/h (2 Bft) O-NO 67 0 min -7,6 C 4,4 C 8,0 km/h (2 Bft)
25.03.2020 17:30 6,8 C 5,6 C 6,3 C 7,0 C 6,6 C 0,2 C 36 % 37 % 1029,6 hPa 0,0 l/m 8,2 km/h (2 Bft) NO 45 0 min -7,2 C 5,0 C 6,1 km/h (2 Bft)
25.03.2020 17:35 6,7 C 5,6 C 6,2 C 6,6 C 6,4 C 0,0 C 36 % 37 % 1029,6 hPa 0,0 l/m 7,6 km/h (2 Bft) O-NO 67 0 min -7,3 C 4,9 C 9,0 km/h (2 Bft)
25.03.2020 17:40 6,7 C 5,6 C 6,1 C 6,7 C 5,9 C 0,0 C 36 % 38 % 1029,6 hPa 0,0 l/m 8,9 km/h (2 Bft) NO 45 0 min -7,3 C 4,0 C 10,1 km/h (2 Bft)
25.03.2020 17:45 6,5 C 5,6 C 5,9 C 6,4 C 5,6 C 0,0 C 37 % 39 % 1029,6 hPa 0,0 l/m 8,0 km/h (2 Bft) O-NO 67 0 min -7,1 C 3,8 C 12,9 km/h (3 Bft)
25.03.2020 17:50 6,4 C 5,6 C 5,8 C 6,2 C 5,8 C 0,0 C 37 % 39 % 1029,6 hPa 0,0 l/m 7,2 km/h (2 Bft) O-NO 67 0 min -7,2 C 4,3 C 7,2 km/h (2 Bft)
25.03.2020 17:55 6,3 C 5,7 C 5,6 C 6,2 C 5,1 C 0,0 C 37 % 38 % 1029,6 hPa 0,0 l/m 8,9 km/h (2 Bft) N-NO 22 0 min -7,3 C 3,0 C 7,9 km/h (2 Bft)
25.03.2020 18:00 6,1 C 5,7 C 5,5 C 5,9 C 4,8 C 0,0 C 37 % 39 % 1029,6 hPa 0,0 l/m 8,9 km/h (2 Bft) NO 45 0 min -7,5 C 2,7 C 13,5 km/h (3 Bft)
25.03.2020 18:05 6,0 C 5,7 C 5,4 C 5,7 C 4,6 C 0,0 C 38 % 39 % 1029,6 hPa 0,0 l/m 7,9 km/h (2 Bft) NO 45 0 min -7,2 C 2,7 C 6,9 km/h (2 Bft)
25.03.2020 18:11 5,9 C 5,7 C 5,2 C 5,5 C 4,7 C 0,0 C 38 % 40 % 1029,6 hPa 0,0 l/m 7,1 km/h (2 Bft) N 0 0 min -7,3 C 3,0 C 9,5 km/h (2 Bft)
25.03.2020 18:25 5,5 C 5,7 C 4,7 C 4,9 C 3,6 C 0,0 C 39 % 41 % 1029,6 hPa 0,0 l/m 7,4 km/h (2 Bft) O-NO 67 0 min -7,3 C 1,7 C 7,9 km/h (2 Bft)
25.03.2020 18:26 5,5 C 5,7 C 4,7 C 4,9 C 3,6 C 0,0 C 39 % 41 % 1029,6 hPa 0,0 l/m 7,4 km/h (2 Bft) O-NO 67 0 min -7,3 C 1,7 C 7,9 km/h (2 Bft)
25.03.2020 18:30 5,5 C 5,7 C 4,6 C 5,0 C 3,1 C 0,0 C 39 % 41 % 1029,6 hPa 0,0 l/m 7,9 km/h (2 Bft) N-NO 22 0 min -7,3 C 0,9 C 7,6 km/h (2 Bft)
25.03.2020 18:35 5,2 C 5,7 C 4,3 C 4,5 C 3,1 C 0,0 C 40 % 42 % 1029,6 hPa 0,0 l/m 6,3 km/h (2 Bft) N-NO 22 0 min -7,3 C 1,4 C 6,1 km/h (2 Bft)
25.03.2020 18:40 5,1 C 5,7 C 4,3 C 4,3 C 2,8 C 0,0 C 40 % 43 % 1029,6 hPa 0,0 l/m 6,1 km/h (2 Bft) NO 45 0 min -7,4 C 1,2 C 15,3 km/h (3 Bft)
25.03.2020 18:45 4,9 C 5,7 C 4,1 C 4,1 C 2,5 C 0,0 C 40 % 43 % 1029,6 hPa 0,0 l/m 6,1 km/h (2 Bft) N-NO 22 0 min -7,5 C 0,8 C 7,1 km/h (2 Bft)
25.03.2020 18:50 4,8 C 5,7 C 4,0 C 4,0 C 2,3 C 0,0 C 41 % 43 % 1029,6 hPa 0,0 l/m 6,0 km/h (2 Bft) NO 45 0 min -7,3 C 0,6 C 5,8 km/h (2 Bft)
25.03.2020 18:55 4,6 C 5,7 C 3,7 C 3,8 C 2,2 C 0,0 C 41 % 44 % 1029,6 hPa 0,0 l/m 5,3 km/h (1 Bft) O-NO 67 0 min -7,5 C 0,8 C 5,5 km/h (1 Bft)
25.03.2020 19:00 4,5 C 5,7 C 3,6 C 3,8 C 2,3 C 0,0 C 41 % 45 % 1029,6 hPa 0,0 l/m 5,1 km/h (1 Bft) NO 45 0 min -7,6 C 1,0 C 7,1 km/h (2 Bft)
25.03.2020 19:05 4,4 C 5,7 C 3,5 C 3,6 C 2,1 C 0,0 C 42 % 45 % 1029,6 hPa 0,0 l/m 5,5 km/h (1 Bft) NO 45 0 min -7,4 C 0,6 C 7,1 km/h (2 Bft)
25.03.2020 19:10 4,3 C 5,8 C 3,5 C 3,5 C 1,9 C 0,0 C 42 % 45 % 1029,6 hPa 0,0 l/m 5,6 km/h (1 Bft) NO 45 0 min -7,5 C 0,3 C 5,1 km/h (1 Bft)
25.03.2020 19:15 4,2 C 5,8 C 3,3 C 3,4 C 1,7 C 0,0 C 43 % 46 % 1029,6 hPa 0,0 l/m 5,3 km/h (1 Bft) O-NO 67 0 min -7,2 C 0,2 C 4,5 km/h (1 Bft)
25.03.2020 19:20 4,0 C 5,8 C 3,1 C 3,2 C 1,6 C 0,0 C 43 % 46 % 1029,6 hPa 0,0 l/m 5,1 km/h (1 Bft) NO 45 0 min -7,4 C 0,2 C 5,0 km/h (1 Bft)
25.03.2020 19:25 3,9 C 5,8 C 3,0 C 3,1 C 1,4 C 0,0 C 44 % 47 % 1029,6 hPa 0,0 l/m 5,0 km/h (1 Bft) NO 45 0 min -7,2 C -0,0 C 5,5 km/h (1 Bft)
25.03.2020 19:30 3,7 C 5,8 C 2,9 C 2,9 C 1,2 C 0,0 C 44 % 47 % 1029,6 hPa 0,0 l/m 5,1 km/h (1 Bft) NO 45 0 min -7,4 C -0,3 C 6,0 km/h (2 Bft)
25.03.2020 19:35 3,6 C 5,8 C 2,7 C 2,8 C 1,2 C 0,0 C 44 % 48 % 1029,6 hPa 0,0 l/m 4,8 km/h (1 Bft) NO 45 0 min -7,5 C -0,1 C 8,0 km/h (2 Bft)
25.03.2020 19:40 3,5 C 5,8 C 2,7 C 2,6 C 0,7 C 0,0 C 45 % 48 % 1029,6 hPa 0,0 l/m 5,6 km/h (1 Bft) N-NO 22 0 min -7,3 C -1,1 C 10,3 km/h (2 Bft)
25.03.2020 19:45 3,5 C 5,8 C 2,7 C 2,5 C 0,6 C 0,0 C 45 % 47 % 1029,6 hPa 0,0 l/m 6,4 km/h (2 Bft) O-NO 67 0 min -7,3 C -1,5 C 8,9 km/h (2 Bft)
25.03.2020 19:50 3,5 C 5,8 C 2,6 C 2,5 C 0,5 C 0,0 C 45 % 48 % 1029,6 hPa 0,0 l/m 6,6 km/h (2 Bft) NO 45 0 min -7,3 C -1,7 C 6,1 km/h (2 Bft)
25.03.2020 19:55 3,5 C 5,8 C 2,6 C 2,5 C 0,5 C 0,0 C 45 % 47 % 1029,6 hPa 0,0 l/m 6,6 km/h (2 Bft) NO 45 0 min -7,3 C -1,7 C 5,1 km/h (1 Bft)
25.03.2020 20:00 3,3 C 5,8 C 2,5 C 2,4 C 0,5 C 0,0 C 45 % 48 % 1029,6 hPa 0,0 l/m 6,3 km/h (2 Bft) NO 45 0 min -7,5 C -1,6 C 6,9 km/h (2 Bft)
25.03.2020 20:05 3,3 C 5,8 C 2,5 C 2,3 C 0,3 C 0,0 C 45 % 48 % 1029,6 hPa 0,0 l/m 7,1 km/h (2 Bft) O-NO 67 0 min -7,5 C -2,1 C 6,3 km/h (2 Bft)
25.03.2020 20:10 3,3 C 5,8 C 2,4 C 2,3 C 0,2 C 0,0 C 45 % 48 % 1029,6 hPa 0,0 l/m 7,4 km/h (2 Bft) NO 45 0 min -7,5 C -2,3 C 5,6 km/h (1 Bft)
25.03.2020 20:17 3,3 C 5,8 C 2,3 C 2,3 C 0,2 C 0,0 C 45 % 48 % 1029,6 hPa 0,0 l/m 6,9 km/h (2 Bft) NO 45 0 min -7,5 C -2,1 C 7,6 km/h (2 Bft)
25.03.2020 20:20 3,3 C 5,8 C 2,3 C 2,3 C 0,2 C 0,0 C 45 % 48 % 1029,6 hPa 0,0 l/m 6,9 km/h (2 Bft) NO 45 0 min -7,5 C -2,1 C 7,6 km/h (2 Bft)
25.03.2020 20:25 3,2 C 5,8 C 2,3 C 2,2 C 0,2 C 0,0 C 45 % 49 % 1029,6 hPa 0,0 l/m 6,9 km/h (2 Bft) NO 45 0 min -7,6 C -2,1 C 9,7 km/h (2 Bft)
25.03.2020 20:30 3,1 C 5,8 C 2,1 C 2,1 C 0,2 C 0,0 C 45 % 49 % 1029,6 hPa 0,0 l/m 6,4 km/h (2 Bft) N-NO 22 0 min -7,7 C -2,0 C 6,6 km/h (2 Bft)
25.03.2020 20:35 3,0 C 5,8 C 2,0 C 2,1 C 0,2 C 0,0 C 46 % 50 % 1029,6 hPa 0,0 l/m 5,8 km/h (2 Bft) O-NO 67 0 min -7,5 C -1,7 C 6,6 km/h (2 Bft)
25.03.2020 20:40 2,9 C 5,7 C 1,9 C 2,0 C 0,1 C 0,0 C 46 % 49 % 1029,6 hPa 0,0 l/m 5,8 km/h (2 Bft) O-NO 67 0 min -7,6 C -1,8 C 7,7 km/h (2 Bft)
25.03.2020 20:46 2,8 C 5,7 C 1,6 C 1,8 C -0,1 C 0,0 C 47 % 51 % 1029,6 hPa 0,0 l/m 6,0 km/h (2 Bft) NO 45 0 min -7,4 C -2,1 C 7,9 km/h (2 Bft)
25.03.2020 20:50 2,7 C 5,7 C 1,5 C 1,8 C -0,1 C 0,0 C 47 % 51 % 1029,6 hPa 0,0 l/m 5,5 km/h (1 Bft) O-NO 67 0 min -7,5 C -1,9 C 6,8 km/h (2 Bft)
25.03.2020 20:55 2,4 C 5,7 C 1,3 C 1,5 C -0,3 C 0,0 C 48 % 52 % 1029,6 hPa 0,0 l/m 5,3 km/h (1 Bft) O-NO 67 0 min -7,5 C -2,1 C 6,4 km/h (2 Bft)
25.03.2020 21:00 2,3 C 5,7 C 1,2 C 1,4 C -0,3 C 0,0 C 48 % 52 % 1029,6 hPa 0,0 l/m 5,3 km/h (1 Bft) NO 45 0 min -7,6 C -2,1 C 4,3 km/h (1 Bft)
25.03.2020 21:05 2,2 C 5,7 C 1,2 C 1,3 C -0,5 C 0,0 C 49 % 53 % 1029,6 hPa 0,0 l/m 4,8 km/h (1 Bft) O-NO 67 0 min -7,4 C -2,1 C 6,3 km/h (2 Bft)
25.03.2020 21:11 2,0 C 5,7 C 1,1 C 1,1 C -0,6 C 0,0 C 49 % 53 % 1029,6 hPa 0,0 l/m 4,7 km/h (1 Bft) O-NO 67 0 min -7,6 C -2,1 C 6,8 km/h (2 Bft)
25.03.2020 21:15 2,0 C 5,7 C 1,0 C 1,1 C -0,8 C 0,0 C 50 % 54 % 1029,6 hPa 0,0 l/m 5,0 km/h (1 Bft) O 90 0 min -7,3 C -2,5 C 6,0 km/h (2 Bft)
25.03.2020 21:20 1,9 C 5,7 C 0,9 C 1,0 C -0,9 C 0,0 C 49 % 54 % 1029,4 hPa 0,0 l/m 5,3 km/h (1 Bft) NO 45 0 min -7,7 C -2,8 C 5,8 km/h (2 Bft)
25.03.2020 21:25 1,9 C 5,7 C 0,9 C 1,0 C -0,9 C 0,0 C 50 % 54 % 1029,4 hPa 0,0 l/m 5,0 km/h (1 Bft) N-NO 22 0 min -7,4 C -2,6 C 7,6 km/h (2 Bft)
25.03.2020 21:30 1,9 C 5,7 C 0,9 C 1,0 C -0,8 C 0,0 C 50 % 54 % 1029,4 hPa 0,0 l/m 4,8 km/h (1 Bft) O-NO 67 0 min -7,4 C -2,4 C 4,5 km/h (1 Bft)
25.03.2020 21:35 1,7 C 5,7 C 0,6 C 0,9 C -0,7 C 0,0 C 50 % 55 % 1029,4 hPa 0,0 l/m 4,3 km/h (1 Bft) O 90 0 min -7,6 C -0,7 C 3,7 km/h (1 Bft)
25.03.2020 21:40 1,5 C 5,7 C 0,4 C 0,8 C -0,7 C 0,0 C 50 % 56 % 1029,4 hPa 0,0 l/m 3,7 km/h (1 Bft) O-NO 67 0 min -7,8 C -0,7 C 2,7 km/h (1 Bft)
25.03.2020 21:45 1,2 C 5,7 C 0,1 C 0,5 C -0,8 C 0,0 C 51 % 57 % 1029,4 hPa 0,0 l/m 3,2 km/h (1 Bft) O-NO 67 0 min -7,8 C -0,8 C 3,7 km/h (1 Bft)
25.03.2020 21:50 1,1 C 5,7 C -0,3 C 0,4 C -0,9 C 0,0 C 52 % 58 % 1029,4 hPa 0,0 l/m 3,2 km/h (1 Bft) O-NO 67 0 min -7,6 C -0,9 C 4,8 km/h (1 Bft)
25.03.2020 21:55 0,9 C 5,7 C -0,3 C 0,2 C -1,2 C 0,0 C 53 % 59 % 1029,4 hPa 0,0 l/m 3,5 km/h (1 Bft) NO 45 0 min -7,6 C -1,2 C 4,3 km/h (1 Bft)
25.03.2020 22:00 0,9 C 5,7 C -0,1 C 0,2 C -1,1 C 0,0 C 53 % 58 % 1029,4 hPa 0,0 l/m 3,4 km/h (1 Bft) NO 45 0 min -7,6 C -1,1 C 2,7 km/h (1 Bft)
25.03.2020 22:05 0,8 C 5,7 C -0,2 C 0,2 C -1,1 C 0,0 C 53 % 59 % 1029,4 hPa 0,0 l/m 2,9 km/h (1 Bft) O-NO 67 0 min -7,7 C -1,1 C 2,7 km/h (1 Bft)
25.03.2020 22:10 0,6 C 5,7 C -0,5 C 0,0 C -1,1 C 0,0 C 54 % 60 % 1029,4 hPa 0,0 l/m 2,7 km/h (1 Bft) NO 45 0 min -7,6 C -1,1 C 3,1 km/h (1 Bft)
25.03.2020 22:15 0,5 C 5,7 C -0,5 C -0,2 C -1,5 C 0,0 C 54 % 60 % 1029,4 hPa 0,0 l/m 3,1 km/h (1 Bft) NO 45 0 min -7,7 C -1,5 C 3,4 km/h (1 Bft)
25.03.2020 22:20 0,5 C 5,7 C -0,5 C -0,2 C -1,6 C 0,0 C 54 % 60 % 1029,4 hPa 0,0 l/m 3,2 km/h (1 Bft) NO 45 0 min -7,7 C -1,6 C 4,2 km/h (1 Bft)
25.03.2020 22:25 0,4 C 5,7 C -0,4 C -0,3 C -1,8 C 0,0 C 55 % 60 % 1029,4 hPa 0,0 l/m 3,5 km/h (1 Bft) NO 45 0 min -7,6 C -1,8 C 4,3 km/h (1 Bft)
25.03.2020 22:30 0,4 C 5,7 C -0,3 C -0,3 C -1,6 C 0,0 C 55 % 59 % 1029,4 hPa 0,0 l/m 3,4 km/h (1 Bft) O-NO 67 0 min -7,6 C -1,6 C 2,7 km/h (1 Bft)
25.03.2020 22:35 0,3 C 5,7 C -0,7 C -0,2 C -1,3 C 0,0 C 55 % 61 % 1029,4 hPa 0,0 l/m 2,7 km/h (1 Bft) NO 45 0 min -7,7 C -1,3 C 2,6 km/h (1 Bft)
25.03.2020 22:40 0,3 C 5,7 C -0,9 C -0,2 C -1,3 C 0,0 C 55 % 61 % 1029,4 hPa 0,0 l/m 2,6 km/h (1 Bft) O-NO 67 0 min -7,7 C -1,3 C 3,2 km/h (1 Bft)
25.03.2020 22:45 0,1 C 5,7 C -0,9 C -0,5 C -1,7 C 0,0 C 56 % 61 % 1029,4 hPa 0,0 l/m 2,9 km/h (1 Bft) NO 45 0 min -7,6 C -1,7 C 5,0 km/h (1 Bft)
25.03.2020 22:50 0,3 C 5,7 C -0,6 C -0,5 C -2,0 C 0,0 C 56 % 61 % 1029,4 hPa 0,0 l/m 3,5 km/h (1 Bft) O-NO 67 0 min -7,4 C -2,0 C 5,0 km/h (1 Bft)
25.03.2020 22:55 0,2 C 5,7 C -0,4 C -0,6 C -2,3 C 0,0 C 56 % 60 % 1029,4 hPa 0,0 l/m 4,5 km/h (1 Bft) O-NO 67 0 min -7,5 C -2,3 C 4,8 km/h (1 Bft)
25.03.2020 23:00 0,3 C 5,7 C -0,4 C -0,6 C -2,4 C 0,0 C 56 % 59 % 1029,1 hPa 0,0 l/m 4,7 km/h (1 Bft) NO 45 0 min -7,4 C -4,2 C 4,3 km/h (1 Bft)
25.03.2020 23:05 0,4 C 5,7 C -0,3 C -0,3 C -1,8 C 0,0 C 56 % 59 % 1029,1 hPa 0,0 l/m 3,5 km/h (1 Bft) NO 45 0 min -7,3 C -1,8 C 2,7 km/h (1 Bft)
25.03.2020 23:10 0,3 C 5,7 C -0,4 C -0,3 C -1,6 C 0,0 C 56 % 58 % 1029,1 hPa 0,0 l/m 3,2 km/h (1 Bft) NO 45 0 min -7,4 C -1,6 C 3,7 km/h (1 Bft)
25.03.2020 23:15 0,4 C 5,7 C -0,3 C -0,4 C -2,1 C 0,0 C 55 % 58 % 1029,1 hPa 0,0 l/m 4,0 km/h (1 Bft) NO 45 0 min -7,6 C -2,1 C 9,0 km/h (2 Bft)
25.03.2020 23:20 0,5 C 5,7 C -0,2 C -0,5 C -2,6 C 0,0 C 55 % 58 % 1029,3 hPa 0,0 l/m 5,1 km/h (1 Bft) NO 45 0 min -7,5 C -4,6 C 7,4 km/h (2 Bft)
25.03.2020 23:25 0,7 C 5,7 C -0,1 C -0,4 C -2,5 C 0,0 C 55 % 58 % 1029,3 hPa 0,0 l/m 5,8 km/h (2 Bft) O-NO 67 0 min -7,3 C -4,8 C 5,8 km/h (2 Bft)
25.03.2020 23:30 0,6 C 5,7 C -0,1 C -0,4 C -2,4 C 0,0 C 54 % 57 % 1029,3 hPa 0,0 l/m 5,5 km/h (1 Bft) NO 45 0 min -7,6 C -4,6 C 5,3 km/h (1 Bft)
25.03.2020 23:35 0,7 C 5,7 C -0,1 C -0,3 C -2,2 C 0,0 C 54 % 57 % 1029,3 hPa 0,0 l/m 5,3 km/h (1 Bft) NO 45 0 min -7,5 C -4,2 C 6,8 km/h (2 Bft)
25.03.2020 23:40 0,7 C 5,7 C -0,1 C -0,3 C -2,2 C 0,0 C 54 % 56 % 1029,3 hPa 0,0 l/m 5,3 km/h (1 Bft) NO 45 0 min -7,5 C -4,2 C 8,9 km/h (2 Bft)
25.03.2020 23:45 0,7 C 5,7 C -0,1 C -0,2 C -2,1 C 0,0 C 54 % 56 % 1029,3 hPa 0,0 l/m 5,0 km/h (1 Bft) NO 45 0 min -7,5 C -4,0 C 4,5 km/h (1 Bft)
25.03.2020 23:50 0,7 C 5,7 C -0,1 C -0,1 C -1,8 C 0,0 C 54 % 56 % 1029,3 hPa 0,0 l/m 4,3 km/h (1 Bft) O-NO 67 0 min -7,5 C -1,8 C 5,5 km/h (1 Bft)
25.03.2020 23:55 0,7 C 5,7 C -0,3 C -0,2 C -1,9 C 0,0 C 54 % 57 % 1029,3 hPa 0,0 l/m 4,0 km/h (1 Bft) O-NO 67 0 min -7,5 C -1,9 C 4,8 km/h (1 Bft)
_ Min-Zeit 05:50 09:40 05:45 05:50 05:50 00:00 14:40 11:35 23:00 - 00:26 - - - 05:40 05:50 00:36
Minimum _ -6,9 C 3,9 C -6,9 C -7,6 C -9,1 C 0,0 C 33 % 27 % 1029,1 hPa - 0,0 km/h (0 Bft) - - - -10,1 C -9,1 C 0,0 km/h (0 Bft)
_ Max-Zeit 15:30 19:10 11:35 15:10 15:10 07:45 07:15 06:11 00:00 00:00 14:45 - - 08:40 08:50 15:10 14:05
Maximum _ 8,1 C 5,8 C 10,7 C 12,2 C 12,2 C 12,4 C 83 % 83 % 1035,6 hPa 0,0 l/m 12,2 km/h
N-NO (2 Bft)
- - 15 min -4,5 C 12,2 C 22,0 km/h
NO (4 Bft)
Durchschnitt _ 1,2 C 4,9 C 1,3 C 2,5 C 1,6 C 1,7 C 54 % 55 % 1031,9 hPa #0,0 l/m 4,7 km/h (1 Bft) NO - #5:56 h -7,8 C 0,8 C 5,9 km/h (2 Bft)
2020 www.wetterstation-wechselburg.de